Regional Weather Roundup
Issued by NWS

Home | Current Version | Previous Version | Graphics & Text | Print | Product List | Glossary On
Versions: 1 2 3 4 5 6 7 8 9 10 11 12 13 14 15 16 17 18 19 20 21 22 23 24 25 26 27 28 29 30 31 32 33 34 35 36 37 38 39 40 41 42 43 44 45 46 47 48 49 50
000
ASUS43 KLOT 040001
RWRIL

ILLINOIS REGIONAL WEATHER ROUNDUP
NATIONAL WEATHER SERVICE CHICAGO/ROMEOVILLE IL
700 PM CDT THU SEP 03 2015

NOTE: "FAIR" INDICATES FEW OR NO CLOUDS BELOW 12,000 FEET WITH NO
SIGNIFICANT WEATHER AND/OR OBSTRUCTIONS TO VISIBILITY.

* THESE STATIONS ARE NOT UNDER NWS QUALITY CONTROL. THEY ALSO MAY NOT
  REPORT WEATHER SUCH AS PRECIPITATION OR FOG.

ILZ001-002-007-009-015-016-024-040100-
NORTHWEST ILLINOIS

CITY           SKY/WX    TMP DP  RH WIND       PRES   REMARKS
MOLINE         CLEAR     88  71  57 S3        29.88S HX  94
6HR MIN TEMP:  87; 6HR MAX TEMP:  93;

STERLING*      PTCLDY    88  75  66 W3        29.87F HX  97
$$

ILZ003-004-008-010-011-017-018-040100-
NORTH CENTRAL ILLINOIS

CITY           SKY/WX    TMP DP  RH WIND       PRES   REMARKS
ROCKFORD       PTCLDY    85  72  65 SW5       29.90S HX  91
6HR MIN TEMP:  85; 6HR MAX TEMP:  90;

$$

ILZ005-006-012>014-019>023-040100-
NORTHEAST ILLINOIS

CITY           SKY/WX    TMP DP  RH WIND       PRES   REMARKS
CHICAGO-OHARE  MOCLDY    77  69  76 NE13G23   29.89R
6HR MIN TEMP:  77; 6HR MAX TEMP:  91;

CHICAGO-MIDWAY MOCLDY    89  68  49 W8        29.88S HX  93
6HR MIN TEMP:  89; 6HR MAX TEMP:  93;

AURORA         CLEAR     85  72  65 SW5       29.90S HX  91
6HR MIN TEMP:  84; 6HR MAX TEMP:  90;

WAUKEGAN       PTCLDY    69  67  93 NE6       29.92R
6HR MIN TEMP:  69; 6HR MAX TEMP:  88;

DUPAGE AIRPORT CLEAR     86  70  58 SW5       29.89S HX  90
6HR MIN TEMP:  85; 6HR MAX TEMP:  90;

WHEELING       PTCLDY    74  67  78 NE9G20    29.93R
6HR MIN TEMP:  74; 6HR MAX TEMP:  91;

NORTHERLY ISL    N/A     88  66  48 W7          N/A  HX  90
$$

LMZ740>746-040100-
SOUTHERN LAKE MICHIGAN

STATION/POSITION SKY/WX   TEMP    WIND        PRES    VSBY  WAVE
                          AIR SEA DIR/SP/G                  HT/PER
                          (F)     (DEG/KT/KT) (MB)    (MI)  (FT/S)
SOUTHERN BUOY              70 71   10/ 12/ 14 1012.0F         1/ 3
WILMETTE HARBOR            76 65  160/ 14/ 21   N/A           0
HARRISON CRIB              87     260/ 13/ 17   N/A
BURNHAM HARBOR             76     350/ 14       N/A
CALUMET HARBOR             89     230/  5/ 12   N/A
BURNS HARBOR               83     260/ 10/ 13 1012.2S
MICHIGAN CITY              83     210/  9/  9   N/A
MICHIGAN CITY 6N           80 76  250/  4/  6   N/A           0
ST. JOSEPH                 77 74  270/  4/  4   N/A           1
$$

ILZ025>027-034>036-040-047-049-050-058-095>099-040100-
WEST-CENTRAL ILLINOIS

CITY           SKY/WX    TMP DP  RH WIND       PRES   REMARKS
QUINCY         CLEAR     87  68  52 SW5       29.90S HX  90
$$

ILZ028>032-037-038-041>044-048-051>054-059>061-040100-
CENTRAL ILLINOIS

CITY           SKY/WX    TMP DP  RH WIND       PRES   REMARKS
DECATUR        CLEAR     87  66  49 SW7       29.91S HX  89
PEORIA         CLEAR     88  68  51 CALM      29.90S HX  91
6HR MIN TEMP:  88; 6HR MAX TEMP:  95;

SPRINGFIELD    CLEAR     88  66  48 SW6       29.91S HX  90
6HR MIN TEMP:  88; 6HR MAX TEMP:  95;

TAYLORVILLE    NOT AVBL
$$

ILZ033-039-045-046-055>057-062-063-040100-
EAST-CENTRAL ILLINOIS

CITY           SKY/WX    TMP DP  RH WIND       PRES   REMARKS
CHAMPAIGN      CLEAR     84  69  60 S6        29.92S HX  88
MATTOON        CLEAR     85  66  53 SW6       29.92S HX  87
$$

ILZ079-100>102-040100-
SOUTHWEST ILLINOIS

CITY           SKY/WX    TMP DP  RH WIND       PRES   REMARKS
ALTON          PTCLDY    86  68  54 VRB3      29.92S HX  89
BELLEVILLE     CLEAR     86  74  67 CALM      29.90F HX  94
CAHOKIA*       PTCLDY    87  70  56 S3        29.91S HX  92
$$

ILZ064>066-069>071-074>076-080>082-084>086-088>090-092>094-040100-
SOUTH-CENTRAL ILLINOIS

CITY           SKY/WX    TMP DP  RH WIND       PRES   REMARKS
CARBONDALE     CLEAR     84  70  62 S5        29.93S HX  88
6HR MIN TEMP:  84; 6HR MAX TEMP:  90;

MT. VERNON     CLEAR     84  70  61 CALM      29.94R HX  88
$$

ILZ067-068-072-073-078-083-087-091-040100-
SOUTHEAST ILLINOIS

CITY           SKY/WX    TMP DP  RH WIND       PRES   REMARKS
LAWRENCEVILLE  MOCLDY    86  67  52 SW5       29.92F HX  89
ROBINSON*      CLEAR     85  70  60 CALM      29.93S HX  89
$$

ABBREVIATIONS USED IN REMARKS
   TC - TEMPERATURE IN CELSIUS
  WCI - WIND CHILL INDEX
   HX - HEAT INDEX
  VSB - VISIBILITY
$$




USA.gov is the U.S. government's official web portal to all federal, state and local government web resources and services.